Location: Cicognara
(44.9500°N, 10.4667°E)
Time: 22:06:08
(UTC+00:00)

USA 215 - Pass Details

Date: 20 June 2021
Orbit: 1100 x 1107 km, 123.0° (Epoch: 22 June)

Event Time Altitude Azimuth Distance (km) Brightness Sun altitude
Rises 20:28:18 0° 62° (ENE) 3,921 6.0 -11.2°
Reaches altitude 10° 20:31:43 10° 80° (E) 2,959 5.2 -11.6°
Maximum altitude 20:36:02 19° 122° (ESE) 2,379 4.5 -12.1°
Enters shadow 20:38:13 16° 146° (SE) 2,535 4.5 -12.3°
